Content
SEND FEEDBACK

Daily
Averages
Monthly
Summary
United States of America

HUMBOLDT, TENNESSEE


Home > North America > United States > Tennessee
Elevation: 420 feet     Latitude: 35 48N     Longitude: 088 52W

WEATHER
 
SELECT A DAY
Number of Records: 208,227;   Date Range: 1/1/95 - 9/21/14
 
SHARE

PRINT THIS DATA

[ ← Previous Day ]
WEATHER ALMANAC - JULY 22, 2014
[ Next Day → ]
[ °C ]   °F
Weather ElementAverageHighLow
Temperature78 °F90 °F (1:53 pm)64.9 °F (5:53 am)
Dewpoint68.4 °F73.9 °F (9:53 pm)63 °F (5:53 am)
Humidity74.8 %94 % (1:10 am)51 % (12:53 pm)
Barometer30.06 in30.09 in (6:53 am)30.01 in (5:53 pm)
Wind Speed1.8 mph5.8 mph (1:53 pm)
Weather ElementAverage
Visibility7.4 mi
Wind DirectionE (85.7 °)

Weather ElementTotal
Precipitation---
Cooling Degree Days12.5 (Base 65)
Growing Degree Days27.5 (Base 50)
Averaged from 23 records on July 22, 2014
WEATHER CONDITIONS BREAKOUT
WIND DIRECTION BREAKOUT
WEATHER BY HOUR - JULY 22, 2014
[ °C ]   °F
Local TimeTemperatureDewpointHumidityBarometerVisibilityWind DirectionWind SpeedGust SpeedPrecipitationEventsConditions
1:10 AM66.2 °F64.4 °F94 %30.06 in2.5 miSSW (200°)3.5 mphClear
1:19 AM66.2 °F64.4 °F94 %30.06 in3.0 miCalmClear
1:53 AM66.9 °F64.9 °F93 %30.05 in4.0 miCalmClear
2:53 AM66.0 °F64.0 °F93 %30.05 in4.0 miCalmClear
3:53 AM66.9 °F64.9 °F93 %30.05 in6.0 miCalmClear
4:53 AM66.0 °F64.0 °F93 %30.06 in4.0 miCalmClear
5:53 AM64.9 °F63.0 °F93 %30.08 in3.0 miCalmClear
6:53 AM69.1 °F66.0 °F90 %30.09 in4.0 miCalmMostly Cloudy
7:53 AM73.0 °F68.0 °F84 %30.09 in7.0 miCalmClear
9:53 AM81.0 °F71.1 °F72 %30.08 in10.0 miCalmClear
10:53 AM84.9 °F70.0 °F61 %30.08 in10.0 miENE (60°)3.5 mphClear
11:53 AM88.0 °F70.0 °F55 %30.08 in10.0 miCalmClear
12:53 PM88.0 °F68.0 °F51 %30.08 in10.0 miSouth (180°)3.5 mphClear
1:53 PM90.0 °F71.1 °F54 %30.07 in10.0 miVariable5.8 mphClear
2:53 PM89.1 °F69.1 °F52 %30.05 in10.0 miWest (280°)5.8 mphPartly Cloudy
3:53 PM90.0 °F70.0 °F52 %30.04 in10.0 miNNW (340°)3.5 mphPartly Cloudy
4:53 PM89.1 °F70.0 °F53 %30.03 in10.0 miWNW (300°)5.8 mphClear
5:53 PM89.1 °F69.1 °F52 %30.01 in10.0 miWNW (300°)4.6 mphClear
6:53 PM88.0 °F71.1 °F57 %30.02 in10.0 miNW (310°)4.6 mphClear
7:53 PM84.9 °F72.0 °F65 %30.02 in10.0 miCalmClear
9:53 PM77.0 °F73.9 °F90 %30.06 in9.0 miCalmClear
10:53 PM75.9 °F72.0 °F87 %30.06 in9.0 miCalmScattered Clouds
11:53 PM73.0 °F71.1 °F93 %30.06 in5.0 miCalmClear
Hourly data recorded from KMKL, located miles away from Humboldt, Tennessee







STORIES FROM OUR PARTNERS